Погода в Перегоновке

Украина / Кировоградская область     48°32′01″N   30°31′24″E
темп.,
°C
ветер,
м/с
пор.,
м/с
влажн.,
%
обл.,
%
осадки,
мм/ч
давл.,
гПа
погр.,
м
30 июня, чт
чт3000:00+19всв498375 0.0 1016206
03:00+18в358936 0.0 101595
06:00+18св349335 0.1 1015115
09:00+23св337130 0.6 1016427
12:00+28св43515 0.0 10151231
15:00+30св444266 0.0 10142273
18:00+25св585883 0.1 1014360
21:00+24всв596297 0.1 1015517
1 июля, пт
пт100:00+19всв387846 0.1 1016175
03:00+18всв348435 0.1 101755
06:00+17всв36870 0.0 1017129
09:00+24св34610 0.0 1018736
12:00+27св44410 0.0 10181905
15:00+29всв54310 0.0 10172017
18:00+28всв55340 0.0 10171827
21:00+22в33520 0.0 101831
2 июля, сб
сб200:00+19в35645 0.0 101967
03:00+17в367095 0.0 102097
06:00+16в36718 0.0 1021115
09:00+22вюв345296 0.0 1022583
12:00+26в43395 0.0 10221712
15:00+28всв333349 0.0 10212114
18:00+27всв3434100 0.0 10201807
21:00+21в45468 0.0 102156
3 июля, вс
вс300:00+17вюв46440 0.0 102195
03:00+16ююв224398 0.0 102120
06:00+16ююв224896 0.0 102130
09:00+24ю3333100 0.0 1020398
12:00+27ю223190 0.0 10191184
15:00+30юв322959 0.0 10171701
18:00+22юз3472100 0.3 1018106
21:00+20юз498698 0.7 1018266
4 июля, пн
пн400:00+18з359449 0.4 1018102
03:00+17сз119541 0.9 101819
06:00+17з22942 0.9 101742
09:00+22сз23716 0.9 1017548
12:00+27с324725 0.2 10171958
15:00+30св433425 0.2 10162656
18:00+30ссв443443 0.0 10151814
21:00+25ссв474759 0.0 1016184